Regional Weather Roundup
Issued by NWS

Home | Current Version | Previous Version | Graphics & Text | Print | Product List | Glossary On
Versions: 1 2 3 4 5 6 7 8 9 10 11 12 13 14 15 16 17 18 19 20 21 22 23 24 25 26 27 28 29 30 31 32 33 34 35 36 37 38 39 40 41 42 43 44 45 46 47 48 49 50
000
ASUS43 KOAX 022310
RWRNE

WEATHER ROUNDUP FOR NEBRASKA
NATIONAL WEATHER SERVICE OMAHA NE
600 PM CDT TUE JUN 02 2015

NOTES: SATELLITE DATA IS BEING USED TO AUGMENT CLOUD COVER ABOVE
       12000 FEET.
       "FAIR" INDICATES FEW OR NO CLOUDS BELOW 12,000 FEET WITH NO
       SIGNIFICANT WEATHER AND/OR OBSTRUCTIONS TO VISIBILITY.

  * THESE STATIONS DO NOT REPORT WEATHER SUCH AS RAIN...SNOW OR FOG.

NEZ001>004-019>022-054>056-030000-
NEBRASKA PANHANDLE

CITY           SKY/WX    TMP DP  RH WIND       PRES   REMARKS
SCOTTSBLUFF    MOSUNNY   86  57  37 SE7       29.80R
ALLIANCE       MOSUNNY   79  63  57 S7        29.81R
CHADRON        TSTM      73  46  38 N21G39    29.82R
KIMBALL          N/A    N/A N/A N/A MISG        N/A
SIDNEY         MOSUNNY   83  59  44 S7        29.84F
$$

NEZ057>060-069>072-079>082-030000-
SOUTHWEST NEBRASKA

CITY           SKY/WX    TMP DP  RH WIND       PRES   REMARKS
NORTH PLATTE   MOSUNNY   82  64  54 S14       29.79F
IMPERIAL       SUNNY     84  64  50 SE12      29.79F
LEXINGTON      MOSUNNY   81  68  66 S12       29.81F HAZE
MCCOOK         MOSUNNY   87  64  46 SE15G23   29.78F
OGALLALA       MOSUNNY   85  64  48 S10       29.78F
$$

NEZ005>010-023>029-035>040-094-030000-
NORTH CENTRAL NEBRASKA

CITY           SKY/WX    TMP DP  RH WIND       PRES   REMARKS
VALENTINE      MOSUNNY   88  59  37 S13       29.76F
AINSWORTH      SUNNY     83  64  52 S16       29.80F
BROKEN BOW     MOSUNNY   78  66  66 S16G24    29.83F
O`NEILL        SUNNY     78  64  63 S17G23    29.83S
ORD            SUNNY     77  63  61 SE8       29.82F
THEDFORD       MOSUNNY   85  67  54 S16G22    29.81S
$$

NEZ041-046>049-061>064-073>077-083>087-030000-
SOUTH CENTRAL NEBRASKA

CITY           SKY/WX    TMP DP  RH WIND       PRES   REMARKS
GRAND ISLAND   MOSUNNY   83  64  52 SE16      29.83F
AURORA         MOSUNNY   83  62  49 S20       29.83F
HASTINGS       MOSUNNY   83  65  54 S15G25    29.82F
HEBRON         MOSUNNY   84  63  49 SE17G24   29.84F
HOLDREGE       SUNNY     83  62  48 S20G26    29.82S
KEARNEY *      MOSUNNY   82  64  54 S17       29.82F
YORK           SUNNY     81  66  61 S17G23    29.85S
$$

NEZ011>018-030>034-042>045-030000-
NORTHEAST NEBRASKA

CITY           SKY/WX    TMP DP  RH WIND       PRES   REMARKS
NORFOLK        SUNNY     78  63  59 S17G24    29.85F
ALBION         PTSUNNY   78  63  61 SE15      29.84F
BLAIR          PTSUNNY   73  58  58 SE15G26   29.91S
COLUMBUS *     MOSUNNY   79  63  57 SE15G23   29.87F
FREMONT        MOSUNNY   76  60  58 SE14G25   29.89F
TEKAMAH        MOSUNNY   80  61  52 SE22      29.88F
WAYNE          MOSUNNY   77  64  64 S21       29.85F
$$

NEZ050>053-065>068-078-088>093-030000-
SOUTHEAST NEBRASKA

CITY           SKY/WX    TMP DP  RH WIND       PRES   REMARKS
LINCOLN        CLOUDY    79  64  60 SE17      29.89F
OMAHA EPPLEY   CLOUDY    74  61  63 SE22      29.91F
BEATRICE       MOSUNNY   78  65  64 SE12      29.88S
FALLS CITY     PTSUNNY   71  60  68 SE17      29.92F
NEBRASKA CITY  PTSUNNY   69  56  64 SE13G22   29.94R
PLATTSMOUTH    PTSUNNY   73  59  61 SE16      29.92S
$$

NEZ044-045-051>053-067-030000-
OMAHA AREA

CITY           SKY/WX    TMP DP  RH WIND       PRES   REMARKS
OMAHA EPPLEY   CLOUDY    74  61  63 SE22      29.91F
BLAIR          PTSUNNY   73  58  58 SE15G26   29.91S
FREMONT        MOSUNNY   76  60  58 SE14G25   29.89F
MILLARD        MOSUNNY   73  64  71 SE12G17   29.90F
OFFUTT AFB     PTSUNNY   71  62  74 SE17      29.90F
PLATTSMOUTH    PTSUNNY   73  59  61 SE16      29.92S
WAHOO          MOCLDY    74  61  63 SE23      29.89F
$$


USA.gov is the U.S. government's official web portal to all federal, state and local government web resources and services.